This demonstration page uses our WeatherBlox Daily Observations layout. Learn more.

Left ArrowRight Arrow

30.21309, -93.2044

Hourly Observations for July 23, 2022

Temp ( °F °C ) Dew Point ( °F °C ) Humidity (%) Winds ( mph kmh ) Pressure ( in mb ) Visibility ( mi km ) Precip ( " mm )
12:15 am 00:15 Clear 77 24.9 73 22.8 88 88 Calm 30.04 1017 10 16 0.00 0.00
12:35 am 00:35 Clear 76 24.5 73 22.8 90 90 Calm 30.04 1017 10 16 0.00 0.00
12:55 am 00:55 Clear 76 24.7 73 22.8 89 89 Calm 30.04 1017 10 16 0.00 0.00
1:15 am 01:15 Clear 76 24.7 73 22.8 89 89 Calm 30.03 1017 10 16 0.00 0.00
1:35 am 01:35 Clear 77 24.8 73 22.9 89 89 Calm 30.03 1017 10 16 0.00 0.00
1:55 am 01:55 Clear 76 24.4 73 22.8 91 91 NNE 3 6 30.03 1017 10 16 0.00 0.00
2:15 am 02:15 Clear 76 24.6 73 22.9 90 90 NE 5 7 30.03 1017 10 16 0.00 0.00
2:35 am 02:35 Clear 76 24.3 73 22.8 91 91 NE 3 6 30.03 1017 10 16 0.00 0.00
2:55 am 02:55 Clear 76 24.2 73 22.9 92 92 Calm 30.03 1017 10 16 0.00 0.00
3:15 am 03:15 Clear 75 23.9 73 22.7 93 93 Calm 30.03 1017 10 16 0.00 0.00
3:55 am 03:55 Clear 75 23.9 73 22.7 93 93 ENE 3 6 30.04 1017 10 16 0.00 0.00
4:15 am 04:15 Clear 74 23.5 73 22.5 94 94 Calm 30.04 1017 10 16 0.00 0.00
4:35 am 04:35 Partly Cloudy 76 24.3 74 23.2 94 94 Calm 30.05 1018 10 16 0.00 0.00
4:55 am 04:55 Clear 75 24 73 22.9 94 94 E 3 6 30.05 1018 10 16 0.00 0.00
5:15 am 05:15 Clear 75 24.1 74 23.1 94 94 E 3 6 30.05 1018 10 16 0.00 0.00
5:35 am 05:35 Clear 76 24.5 74 23.5 94 94 NE 5 7 30.05 1018 10 16 0.00 0.00
6:00 am 06:00 Mostly Clear 75 24 73 23 94 94 Calm 30.05 1018 10 16 0.00 0.00
6:45 am 06:45 Mostly Sunny 75 24 73 23 94 94 Calm 30.06 1018 10 16 0.00 0.00
7:55 am 07:55 Mostly Sunny 79 26 75 24 89 89 Calm 30.07 1018 10 16 0.00 0.00
8:47 am 08:47 Mostly Sunny 81 27 77 25 89 89 SE 6 9 30.08 1019 10 16 0.00 0.00
9:48 am 09:48 Mostly Sunny 84 29 79 26 84 84 ESE 6 9 30.08 1019 10 16 0.00 0.00
10:54 am 10:54 Partly Cloudy 88 31 75 24 66 66 SSE 9 15 30.09 1019 10 16 0.00 0.00
11:47 am 11:47 Partly Cloudy 90 32 75 24 63 63 S 5 7 30.08 1019 10 16 0.00 0.00
12:47 pm 12:47 Mostly Cloudy with Mist and Fog 90 32 70 21 52 52 W 8 13 30.07 1018 10 16 0.00 0.00
1:39 pm 13:39 Mostly Cloudy with Thunderstorms 88 31 75 24 66 66 SSE 14 22 30.05 1018 10 16 0.00 0.00
1:49 pm 13:49 Mostly Cloudy with Thunderstorms 84 29 73 23 70 70 SE 15 24 30.06 1018 10 16 0.00 0.00
2:45 pm 14:45 Mostly Sunny 84 29 75 24 74 74 SSE 7 11 30.05 1018 10 16 0.00 0.00
3:47 pm 15:47 Mostly Sunny 88 31 75 24 66 66 S 7 11 30.05 1018 10 16 0.00 0.00
4:47 pm 16:47 Partly Cloudy 88 31 75 24 66 66 SW 7 11 30.05 1018 10 16 0.00 0.00
5:48 pm 17:48 Mostly Cloudy 84 29 75 24 74 74 ESE 7 11 30.04 1017 10 16 0.00 0.00
6:45 pm 18:45 Partly Cloudy 84 29 73 23 70 70 SE 6 9 30.02 1017 10 16 0.00 0.00
7:50 pm 19:50 Partly Cloudy 82 28 75 24 79 79 S 6 9 30.02 1017 10 16 0.00 0.00
8:50 pm 20:50 Mostly Clear 79 26 75 24 89 89 Calm 30.03 1017 10 16 0.00 0.00
9:55 pm 21:55 Mostly Clear 79 26 75 24 89 89 Calm 30.05 1018 10 16 0.00 0.00
10:15 pm 22:15 Clear 78 25.4 75 23.8 91 91 SE 5 7 30.06 1018 10 16 0.00 0.00
10:35 pm 22:35 Clear 77 25.1 75 23.8 93 93 Calm 30.06 1018 10 16 0.00 0.00
10:55 pm 22:55 Clear 77 25.1 75 23.8 93 93 SE 5 7 30.07 1018 10 16 0.00 0.00
11:15 pm 23:15 Clear 77 25.1 75 23.9 93 93 SSE 5 7 30.06 1018 10 16 0.00 0.00
11:35 pm 23:35 Clear 78 25.3 75 24.1 93 93 S 7 11 30.06 1018 10 16 0.00 0.00
11:55 pm 23:55 Clear 78 25.5 75 24 91 91 SSE 6 9 30.06 1018 10 16 0.00 0.00

Powered by AerisWeather